ARIANE 2 DEB, 33579

Orbit data source: Space-Track

ARIANE 2 DEB, 33579 is space debris in HEO originally from a launch on Fri, 27 Jan 1989 UTC launched from the French Guiana (FRGUI). Debris objects in space refer to the collection of defunct objects orbiting the Earth. Examples of debris include non-operational satellites, rocket bodies, and fragments generated from explosions, collisions, or faulty payload assembly.

Loading next visibility...
Identifier
33579, 1989-006BX
Orbit
HEO
Country
Flag of FRFR
Related business
Manufacturer
EADS/LV
Mission
Spacecraft
Bus & Motor
Unknown
Mass
Unknown
Launch date (UTC)
1989-01-27 (37 years ago)
Launch vehicle
Unknown
Launch site
French Guiana (FRGUI)
Object type
Payload
Rocket body
Debris
Shape & HBR
Unknown shape, 0.2 m
Radar Cross Section
Medium (>0.1 m² and <1 m²)

Expand to show TLE details & history
Last TLE update: 1 week ago

TLE from 1 week ago
0 ARIANE 2 DEB
1 33579U 89006BX  25285.10120810 -.00000238  00000-0 -30643-2 0  9998
2 33579  10.6254 174.9278 7025699 193.0580 353.2910  2.24700176189526
Epoch: 2025-10-12T02:25Z
TLE epoch observation values (Epoch: 2025-10-12T02:25:44.379Z)
Latitude
6.33017°
Longitude
-98.24454°
Altitude
2,154.757 km
Speed
8.788 km/s
True Right ascension
21h 16m 27s
True Declination
6° 17' 55"
Sunlit
Object was in daylight at epoch
Visualization orbit readout
Latitude
Unknown
Longitude
Unknown
Altitude
Unknown
Speed
Unknown
Apparent Right ascension
Unknown
Apparent Declination
Unknown
Sunlit
N/A
Visualization observer readout
Local Sidereal Time
10:56:28
Azimuth
Unknown
Elevation
Unknown
Doppler factor
Unknown
Orbital elements
Apogee altitude
35,551.51 km
Perigee altitude
946.754 km
Semi-major axis
24,627.269 km
Eccentricity
0.70257
Inclination
10.6254°
RAAN
174.9278°
Arg. of periapsis
193.058°
True anomaly
311.36554°
Mean anomaly
353.291°
Eccentric anomaly
338.60909°
Mean motion
0.56159 °/min
Orbital period
641.04 mins
BSTAR
-0.0030643
Loading maneuver chart data...
Computing Atmospheric mass density...
Loading historical data...
Loading historical data...
Loading historical data...
Loading historical data...
Loading historical data...
Loading historical data...
Loading historical data...

Documentation

Showing up to 5 results
|